TimeMST,TemperatureF,Dew PointF,Humidity,Sea Level PressureIn,VisibilityMPH,Wind Direction,Wind SpeedMPH,Gust SpeedMPH,PrecipitationIn,Events,Conditions,WindDirDegrees,DateUTC
12:15 AM,26.6,21.2,80,29.76,9.0,ENE,5.8,-,N/A,,Overcast,60,2012-12-08 07:15:00
12:35 AM,26.6,21.2,80,29.75,8.0,NNE,6.9,-,N/A,,Overcast,30,2012-12-08 07:35:00
12:55 AM,24.8,21.2,86,29.75,9.0,NNE,6.9,-,N/A,,Overcast,20,2012-12-08 07:55:00
1:15 AM,24.8,21.2,86,29.75,10.0,North,5.8,-,N/A,,Overcast,10,2012-12-08 08:15:00
1:35 AM,24.8,21.2,86,29.74,10.0,NNE,8.1,-,N/A,,Overcast,20,2012-12-08 08:35:00
1:55 AM,24.8,19.4,80,29.74,10.0,NNE,9.2,-,N/A,,Overcast,30,2012-12-08 08:55:00
2:15 AM,24.8,19.4,80,29.74,9.0,NNE,6.9,-,N/A,,Overcast,30,2012-12-08 09:15:00
2:35 AM,23.0,19.4,86,29.73,9.0,NNE,9.2,-,N/A,,Overcast,30,2012-12-08 09:35:00
3:35 AM,23.0,19.4,86,29.72,9.0,NNE,9.2,-,N/A,,Overcast,20,2012-12-08 10:35:00
3:55 AM,23.0,19.4,86,29.73,9.0,North,6.9,-,N/A,,Overcast,10,2012-12-08 10:55:00
4:15 AM,23.0,19.4,86,29.72,1.0,NNE,9.2,-,N/A,,Overcast,20,2012-12-08 11:15:00
4:35 AM,23.0,19.4,86,29.72,0.8,NNE,10.4,-,N/A,,Overcast,30,2012-12-08 11:35:00
4:55 AM,23.0,19.4,86,29.71,0.8,NE,10.4,-,N/A,,Overcast,40,2012-12-08 11:55:00
5:15 AM,23.0,19.4,86,29.70,0.8,NNE,11.5,-,N/A,,Overcast,30,2012-12-08 12:15:00
5:35 AM,21.2,19.4,93,29.70,1.0,NNE,12.7,-,N/A,,Overcast,30,2012-12-08 12:35:00
5:55 AM,21.2,17.6,86,29.70,1.5,NNE,13.8,-,N/A,,Overcast,30,2012-12-08 12:55:00
6:15 AM,19.4,17.6,93,29.70,1.5,NNE,12.7,-,N/A,,Overcast,30,2012-12-08 13:15:00
6:35 AM,19.4,15.8,86,29.70,2.0,NNE,13.8,-,N/A,,Overcast,30,2012-12-08 13:35:00
6:55 AM,19.4,15.8,86,29.71,1.8,NNE,12.7,-,N/A,,Overcast,30,2012-12-08 13:55:00
7:15 AM,19.4,15.8,86,29.72,1.0,NNE,11.5,-,N/A,,Overcast,30,2012-12-08 14:15:00
7:35 AM,17.6,15.8,93,29.73,0.5,NNE,11.5,-,N/A,,Overcast,20,2012-12-08 14:35:00
7:55 AM,17.6,14.0,86,29.73,0.5,NNE,11.5,-,N/A,,Overcast,20,2012-12-08 14:55:00
8:15 AM,15.8,12.2,86,29.74,0.8,NNE,15.0,-,N/A,,Overcast,20,2012-12-08 15:15:00
8:35 AM,15.8,12.2,86,29.75,1.0,NNE,16.1,21.9,N/A,,Overcast,20,2012-12-08 15:35:00
8:55 AM,15.8,12.2,86,29.75,0.8,NNE,17.3,-,N/A,,Overcast,20,2012-12-08 15:55:00
9:15 AM,15.8,12.2,86,29.77,2.0,NNE,16.1,-,N/A,,Overcast,20,2012-12-08 16:15:00
9:35 AM,15.8,12.2,86,29.77,1.8,NNE,17.3,-,N/A,,Overcast,30,2012-12-08 16:35:00
9:55 AM,15.8,10.4,79,29.78,1.0,NNE,18.4,-,N/A,,Overcast,30,2012-12-08 16:55:00
10:15 AM,15.8,10.4,79,29.79,1.2,NNE,12.7,-,N/A,,Overcast,30,2012-12-08 17:15:00
10:35 AM,15.8,10.4,79,29.80,0.5,NE,20.7,25.3,N/A,,Overcast,40,2012-12-08 17:35:00
10:55 AM,15.8,12.2,86,29.81,0.5,NNE,13.8,21.9,N/A,,Overcast,30,2012-12-08 17:55:00
11:15 AM,15.8,12.2,86,29.82,0.5,North,13.8,-,N/A,,Overcast,10,2012-12-08 18:15:00
11:35 AM,15.8,12.2,86,29.82,0.5,North,12.7,-,N/A,,Overcast,10,2012-12-08 18:35:00
12:15 PM,14.0,8.6,79,29.85,0.8,North,16.1,-,N/A,,Overcast,10,2012-12-08 19:15:00
12:55 PM,14.0,10.4,86,29.87,1.0,NNE,15.0,19.6,N/A,,Overcast,20,2012-12-08 19:55:00
1:35 PM,12.2,8.6,85,29.89,0.5,North,18.4,23.0,N/A,,Overcast,10,2012-12-08 20:35:00
1:55 PM,12.2,6.8,79,29.90,0.8,NNE,17.3,25.3,N/A,,Overcast,20,2012-12-08 20:55:00
2:15 PM,10.4,6.8,85,29.92,1.0,North,16.1,20.7,N/A,,Overcast,10,2012-12-08 21:15:00
2:35 PM,10.4,6.8,85,29.94,0.8,NNE,18.4,24.2,N/A,,Overcast,20,2012-12-08 21:35:00
2:55 PM,10.4,5.0,79,29.95,0.8,North,18.4,-,N/A,,Overcast,10,2012-12-08 21:55:00
3:15 PM,-9999,-9999,N/A,29.97,0.8,North,18.4,-,N/A,,Overcast,360,2012-12-08 22:15:00
3:35 PM,-9999,-9999,N/A,29.99,1.0,North,18.4,-,N/A,,Overcast,10,2012-12-08 22:35:00
3:55 PM,-9999,-9999,N/A,30.01,1.2,North,19.6,-,N/A,,Overcast,10,2012-12-08 22:55:00
4:15 PM,-9999,-9999,N/A,30.03,5.0,North,19.6,23.0,N/A,,Overcast,10,2012-12-08 23:15:00
4:35 PM,-9999,-9999,N/A,30.06,4.0,North,19.6,24.2,N/A,,Overcast,360,2012-12-08 23:35:00
4:55 PM,-9999,-9999,N/A,30.08,5.0,North,18.4,24.2,N/A,,Overcast,360,2012-12-08 23:55:00
5:15 PM,-9999,-9999,N/A,30.09,7.0,North,19.6,23.0,N/A,,Overcast,360,2012-12-09 00:15:00
5:35 PM,-9999,-9999,N/A,30.10,9.0,North,18.4,21.9,N/A,,Overcast,10,2012-12-09 00:35:00
5:55 PM,-9999,-9999,N/A,30.11,8.0,North,17.3,24.2,N/A,,Scattered Clouds,10,2012-12-09 00:55:00
6:15 PM,6.8,1.4,79,30.14,10.0,North,12.7,-,N/A,,Partly Cloudy,360,2012-12-09 01:15:00
6:35 PM,-9999,-9999,N/A,30.15,10.0,North,13.8,-,N/A,,Clear,10,2012-12-09 01:35:00
6:55 PM,-9999,-9999,N/A,30.16,10.0,North,12.7,-,N/A,,Clear,350,2012-12-09 01:55:00
7:35 PM,-9999,-9999,N/A,30.19,10.0,North,13.8,-,N/A,,Clear,350,2012-12-09 02:35:00
7:55 PM,3.2,-0.4,85,30.21,10.0,NNW,12.7,-,N/A,,Clear,340,2012-12-09 02:55:00
8:15 PM,3.2,-2.2,78,30.21,10.0,NNW,13.8,-,N/A,,Clear,340,2012-12-09 03:15:00
8:35 PM,3.2,-2.2,78,30.23,10.0,NNW,13.8,-,N/A,,Clear,330,2012-12-09 03:35:00
8:55 PM,3.2,-2.2,78,30.25,10.0,NW,12.7,-,N/A,,Clear,320,2012-12-09 03:55:00
9:15 PM,3.2,-0.4,85,30.26,10.0,NNW,12.7,-,N/A,,Clear,340,2012-12-09 04:15:00
9:35 PM,1.4,-5.8,72,30.27,10.0,NW,12.7,-,N/A,,Clear,320,2012-12-09 04:35:00
9:55 PM,1.4,-2.2,85,30.27,10.0,NW,11.5,-,N/A,,Clear,320,2012-12-09 04:55:00
10:15 PM,-0.4,-5.8,78,30.29,10.0,NW,12.7,-,N/A,,Clear,320,2012-12-09 05:15:00
10:35 PM,-0.4,-5.8,78,30.30,10.0,NW,10.4,-,N/A,,Clear,320,2012-12-09 05:35:00
10:55 PM,-2.2,-7.6,78,30.31,10.0,WNW,12.7,-,N/A,,Clear,300,2012-12-09 05:55:00
11:15 PM,-2.2,-5.8,85,30.32,10.0,NW,9.2,-,N/A,,Clear,310,2012-12-09 06:15:00
11:35 PM,-2.2,-5.8,85,30.33,10.0,WNW,12.7,-,N/A,,Clear,300,2012-12-09 06:35:00
11:55 PM,-2.2,-7.6,78,30.33,10.0,NW,12.7,-,N/A,,Clear,310,2012-12-09 06:55:00